Kuchera_Ratio
0.0 0.0 0.0 0.0 0.0 0.0 0.0 0.0 0.0 0.0 0.0 0.0 0.0 0.0 0.0 0.0 0.0 0.0 0.0 0.0 0.0 0.0
0.0 0.0 0.0 0.0 0.0 0.0 0.0 0.0 0.0 0.0 0.0 0.0 0.0 0.0 0.0 0.0 0.0 0.0 0.0 0.0 0.0 0.0
0.0 0.0 0.0 0.0 0.0 0.0 0.0 0.0 0.0 0.0 0.0 0.0 0.0 0.0 0.0 0.0 0.0 0.1 0.0 0.0 0.0 0.0
0.0 0.0 0.0 0.0 0.0 0.0 0.0 0.0 0.0 0.0 0.0 0.0 0.7 0.0 0.3 0.7 0.9 2.9 2.3 0.5 0.0 0.0
0.0 0.0 0.0 0.0 0.0 0.0 0.0 0.0 1.3 2.3 1.9 2.3 1.3 1.7 2.7 2.7 2.5 4.5 6.1 5.5 4.1 3.7
0.7 0.7 1.1 0.7 1.7 2.5 1.7 1.9 3.7 4.3 5.5 5.3 3.9 4.3 4.1 2.7 3.5 4.1 5.7 7.5 6.7 6.3
4.3 4.7 3.7 1.9 2.7 5.7 4.7 5.3 7.3 7.3 7.1 6.5 4.9 4.9 6.1 5.1 4.1 4.3 3.5 6.9 8.1 8.3
0.5 4.5 4.1 3.9 2.5 4.7 5.3 5.3 6.9 7.9 7.7 7.9 7.5 7.1 8.5 7.7 6.9 7.7 7.5 7.1 8.1 9.5
0.1 0.0 1.1 1.9 2.1 1.1 3.9 5.1 7.1 8.5 8.9 9.7 8.9 7.3 7.9 8.1 9.1 9.9 10.7 10.7 9.9 7.5
0.1 0.1 0.0 0.0 0.0 0.0 0.5 0.9 4.7 7.9 8.3 9.5 10.3 8.7 8.5 7.9 8.7 9.7 11.3 12.1 11.9 11.5
1.3 1.3 0.5 0.0 0.0 0.0 0.0 0.0 0.9 3.1 5.1 5.5 8.7 10.1 10.5 7.1 8.1 9.1 10.5 12.2 12.1 12.2
2.9 2.5 2.1 1.5 1.1 0.1 0.0 0.7 1.3 2.1 3.9 5.5 5.9 11.5 11.9 7.7 4.9 8.3 9.7 10.9 12.3 12.9
2.9 3.3 3.5 2.5 1.7 0.3 0.3 1.5 1.5 2.9 4.1 7.7 7.1 12.0 12.2 11.3 8.1 7.9 8.7 8.9 11.3 13.2
3.9 5.1 3.9 3.1 1.7 1.5 1.3 2.5 3.9 4.5 3.9 5.3 7.9 8.5 12.5 12.9 11.9 12.9 11.7 12.3 12.8 12.9